Location: Niedergestelen
(46.3129°N, 7.7822°E)
Time: 14:15:46
(UTC+00:00)

Cosmos 2218 Rocket - Pass Details

Date: 01 December 2020
Orbit: 956 x 1005 km, 82.9° (Epoch: 26 January)

Event Time Altitude Azimuth Distance (km) Brightness Sun altitude
Rises 16:28:29 0° 354° (N) 3,650 6.8 -7.6°
Reaches altitude 10° 16:31:04 10° 359° (N) 2,698 6.1 -8.0°
Maximum altitude 16:37:05 54° 77° (ENE) 1,156 4.1 -9.0°
Drops below altitude 10° 16:43:05 10° 154° (SSE) 2,690 6.3 -9.9°
Sets 16:45:39 0° 159° (SSE) 3,638 7.0 -10.3°
